Home   Weather   Normanton   Past weeks
Flag for Australia

Past Weather in Normanton, Queensland, Australia — Yesterday and Last 2 Weeks

Now
80 °F

Warm.


Feels Like: 86 °F
Forecast: 101 / 81 °F
Wind: No wind

Location: Kowanyama Airport

Current Time: Feb 20, 2019 at 3:13:56 am

Latest Report: Feb 20, 2019 at 1:00 am


Visibility: N/A

Pressure: 29.85 "Hg

Humidity: 89%

Dew Point: 76 °F

Location of NormantonLocation

Past Weather in Normanton — Graph

°F

Normanton Temperature Yesterday

Maximum temperature yesterday: 91 °F (at 3:00 pm)
Minimum temperature yesterday: 76 °F (at 12:00 am)
Average temperature yesterday: 83 °F

High & Low Weather Summary for the Past Weeks

 TemperatureHumidityPressure
High95 °F (Feb 15, 1:00 pm)96% (Feb 6, 6:00 am)29.93 "Hg (Feb 6, 6:00 am)
Low75 °F (Feb 18, 6:00 pm)51% (Feb 16, 3:00 pm)29.41 "Hg (Feb 5, 4:00 pm)
Average82 °F81%29.72 "Hg
* Reported Feb 5 1:00 am — Feb 20 1:00 am, Normanton. Weather by CustomWeather, © 2019

Note: Actual official high and low records may vary slightly from our data, if they occured in-between our weather recording intervals... More about our weather records

Advertising

Normanton Weather History for the Previous 24 Hours

Scroll right to see more
 ConditionsComfort  
Time TempWeatherWind HumidityBarometerVisibility
1:00 am
Wed, Feb 20
80 °FWarm.No wind89%29.85 "HgN/A
12:00 am80 °FWarm.No wind87%29.85 "HgN/A
10:00 pm
Tue, Feb 19
82 °FWarm.3 mph83%29.84 "HgN/A
9:00 pm83 °FWarm.3 mph82%29.83 "HgN/A
7:00 pm85 °FWarm.7 mph72%29.78 "HgN/A
6:00 pm88 °FPassing clouds.10 mph64%29.77 "HgN/A
4:00 pm90 °FHot.14 mph61%29.77 "HgN/A
3:00 pm91 °FPassing clouds.15 mph65%29.78 "HgN/A
1:00 pm90 °FHot.13 mph65%29.83 "HgN/A
12:00 pm90 °FScattered clouds.10 mph71%29.85 "HgN/A
10:00 am86 °FWarm.6 mph77%29.87 "HgN/A
9:00 am83 °FScattered clouds.5 mph79%29.86 "HgN/A
7:00 am77 °FWarm.3 mph96%29.84 "HgN/A
6:00 am77 °FOvercast.No wind95%29.81 "HgN/A
4:00 am76 °FMild.2 mph95%29.80 "HgN/A
3:00 am77 °FOvercast.5 mph94%29.81 "HgN/A
Weather by CustomWeather, © 2019

See weather overview